TimeCDT,TemperatureF,Dew PointF,Humidity,Sea Level PressureIn,VisibilityMPH,Wind Direction,Wind SpeedMPH,Gust SpeedMPH,PrecipitationIn,Events,Conditions,WindDirDegrees,DateUTC
12:53 AM,60.1,33.1,36,29.83,10.0,SSE,4.6,-,N/A,,Clear,150,2012-05-29 05:53:00
1:53 AM,55.0,35.1,47,29.87,10.0,NNW,6.9,-,N/A,,Clear,340,2012-05-29 06:53:00
2:53 AM,52.0,35.1,53,29.89,10.0,WNW,4.6,-,N/A,,Clear,300,2012-05-29 07:53:00
3:53 AM,48.9,35.1,59,29.91,10.0,WNW,4.6,-,N/A,,Clear,290,2012-05-29 08:53:00
5:53 AM,44.1,35.1,71,29.96,10.0,NW,3.5,-,N/A,,Clear,320,2012-05-29 10:53:00
6:53 AM,48.0,37.0,66,29.99,10.0,Calm,Calm,-,N/A,,Clear,0,2012-05-29 11:53:00
7:53 AM,57.9,45.0,62,30.01,10.0,NE,11.5,-,N/A,,Clear,40,2012-05-29 12:53:00
8:53 AM,62.1,41.0,46,30.04,10.0,NE,15.0,20.7,N/A,,Clear,50,2012-05-29 13:53:00
9:53 AM,64.9,39.9,40,30.04,10.0,ENE,15.0,-,N/A,,Clear,70,2012-05-29 14:53:00
10:53 AM,68.0,39.9,36,30.03,10.0,NE,13.8,21.9,N/A,,Clear,40,2012-05-29 15:53:00
11:53 AM,72.0,41.0,33,30.01,10.0,NE,13.8,19.6,N/A,,Clear,40,2012-05-29 16:53:00
12:53 PM,75.0,39.9,28,30.00,10.0,NE,12.7,19.6,N/A,,Clear,40,2012-05-29 17:53:00
1:53 PM,77.0,39.0,25,29.98,10.0,NE,10.4,19.6,N/A,,Clear,50,2012-05-29 18:53:00
2:53 PM,81.0,39.9,23,29.96,10.0,NE,12.7,20.7,N/A,,Clear,50,2012-05-29 19:53:00
3:53 PM,81.0,39.9,23,29.95,10.0,Variable,3.5,26.5,N/A,,Clear,0,2012-05-29 20:53:00
4:53 PM,82.0,41.0,23,29.94,10.0,ENE,10.4,17.3,N/A,,Clear,60,2012-05-29 21:53:00
5:53 PM,81.0,41.0,24,29.94,10.0,ENE,10.4,17.3,N/A,,Clear,70,2012-05-29 22:53:00
6:53 PM,80.1,39.9,24,29.93,10.0,NE,8.1,-,N/A,,Clear,50,2012-05-29 23:53:00
7:53 PM,78.1,41.0,27,29.92,10.0,ENE,6.9,-,N/A,,Clear,60,2012-05-30 00:53:00
8:53 PM,70.0,42.1,36,29.93,10.0,NE,6.9,-,N/A,,Clear,50,2012-05-30 01:53:00
9:53 PM,66.0,43.0,43,29.94,10.0,NE,8.1,-,N/A,,Clear,50,2012-05-30 02:53:00
10:53 PM,62.1,43.0,50,29.95,10.0,East,6.9,-,N/A,,Clear,80,2012-05-30 03:53:00
11:53 PM,57.9,43.0,58,29.94,10.0,East,6.9,-,N/A,,Clear,80,2012-05-30 04:53:00